Regional Weather Roundup
Issued by NWS

Home | Current Version | Previous Version | Graphics & Text | Print | Product List | Glossary On
Versions: 1 2 3 4 5 6 7 8 9 10 11 12 13 14 15 16 17 18 19 20 21 22 23 24 25 26 27 28 29 30 31 32 33 34 35 36 37 38 39 40 41 42 43 44 45 46 47 48 49 50
000
ASUS43 KMPX 222101
RWRMN
WEATHER ROUNDUP FOR MINNESOTA
NATIONAL WEATHER SERVICE TWIN CITIES/CHANHASSEN MN
400 PM CDT FRI JUN 22 2018


NOTE: "FAIR" INDICATES FEW OR NO CLOUDS BELOW 12,000 FEET WITH NO
SIGNIFICANT WEATHER AND/OR OBSTRUCTIONS TO VISIBILITY. N/A MEANS
CURRENT SKY AND/OR WEATHER CONDITIONS ARE NOT AVAILABLE.

MNZ060>063-068>070-222200-
   Twin Cities Metro

CITY           SKY/WX    TMP DP  RH WIND       PRES   REMARKS
TWIN CITIES    PTSUNNY   81  54  39 NE5       29.84F
ST PAUL        FAIR      80  58  46 VRB3      29.84F
CRYSTAL        FAIR      79  56  45 E5        29.83F
BLAINE         PTSUNNY   81  57  44 NE5       29.85F
LAKEVILLE      FAIR      81  61  50 S3        29.84F
EDEN PRAIRIE   FAIR      81  56  42 NW5       29.84F
SOUTH ST PAUL  FAIR      80  54  40 CALM      29.83F
LAKE ELMO      FAIR      79  59  50 NE7       29.86F
$$
MNZ001>005-007-008-013>017-022>024-027-028-222200-
   Northwest Minnesota

CITY           SKY/WX    TMP DP  RH WIND       PRES   REMARKS
BEMIDJI        PTSUNNY   83  58  41 S6        29.85F
HALLOCK        FAIR      88  57  35 S13G18    29.77F
ROSEAU         FAIR      86  64  48 S7        29.81F
WARROAD        FAIR      84  66  54 SW7       29.81F
CROOKSTON      FAIR      84  57  39 S13G18    29.81F
FOSSTON        FAIR      81  57  44 S7        29.85F
DETROIT LAKES  FAIR      79  55  44 SE7       29.87F
MOORHEAD       FAIR      82  57  42 SE8       29.82F
PARK RAPIDS    FAIR      81  57  43 SE10      29.86F
MAHNOMEN       FAIR      80  59  48 S7        29.85F
$$
MNZ006-009>011-018-025>026-222200-
   North Central Minnesota

CITY           SKY/WX    TMP DP  RH WIND       PRES   REMARKS
BAUDETTE       FAIR      84  62  47 W8        29.81F
FLAG ISLAND    FAIR      81  64  57 NW10G20   29.80S
INTL FALLS     FAIR      84  64  50 CALM      29.82F
WASKISH        FAIR      82  66  57 CALM      29.84F
BIG FORK       FAIR      84  61  45 SW8       29.84F
LONGVILLE      FAIR      82  57  42 SW3       29.86F
CRANE LAKE     FAIR      82  59  44 CALM      29.83F
ORR            FAIR      81  57  44 CALM      29.82S
WALKER         FAIR      80  63  56 E5        29.86F
$$
MNZ012-019>021-037-222200-
   Northeast Minnesota

CITY           SKY/WX    TMP DP  RH WIND       PRES   REMARKS
DULUTH         PTSUNNY   78  52  40 S8        29.86F
ELY            FAIR      79  57  47 SW3       29.85F
HIBBING        PTSUNNY   80  58  46 W3        29.84F
EVELETH        FAIR      82  59  46 CALM      29.86F
DULUTH HARBOR  FAIR      73  63  68 CALM      29.85F
TWO HARBORS    FAIR      77  54  44 E3        29.84F
SILVER BAY     FAIR      79  46  31 S5        29.85F
GRAND MARAIS     N/A     52  45  77 SW6       29.85F
G MARAIS ARPRT FAIR      73  48  40 S5        29.89F
$$
MNZ029>031-032-039>041-046>048-054>057-064-222200-
   West Central Minnesota

CITY           SKY/WX    TMP DP  RH WIND       PRES   REMARKS
FERGUS FALLS   FAIR      79  55  44 SE5       29.85F
WHEATON        CLOUDY    81  48  32 SE8       29.84F
MORRIS         CLOUDY    81  57  44 E6        29.83F
ALEXANDRIA     FAIR      81  56  42 SW10      29.87F
ELBOW LAKE     FAIR      78  55  44 SE6       29.85F
WADENA         FAIR      79  55  44 SE8       29.86F
GLENWOOD       FAIR      79  59  50 S3        29.87F
APPLETON       CLOUDY    81  54  39 S5        29.83F
BENSON         CLOUDY    79  61  53 SW5       29.86S
ORTONVILLE     MOSUNNY   81  52  36 SE3       29.83F
MADISON        PTSUNNY   81  63  54 S3        29.83F
WILLMAR        FAIR      79  61  53 SE5       29.87F
$$
MNZ033>034-036-042>043-049>051-058-059-222200-
   Central Minnesota

CITY           SKY/WX    TMP DP  RH WIND       PRES   REMARKS
ST CLOUD       FAIR      78  58  49 CALM      29.86F
SAUK CENTRE    FAIR      77  59  54 SE3       29.86F
PAYNESVILLE    FAIR      78  60  55 E6        29.87F
AITKIN         FAIR      79  55  44 SE6       29.85F
PINE RIVER     FAIR      79  57  47 SE5       29.89F
BRAINERD       FAIR      81  54  39 E7        29.86F
STAPLES        FAIR      81  54  39 CALM      29.86F
LONG PRAIRIE   FAIR      77  55  47 S7        29.88F
LITTLE FALLS   FAIR      77  55  47 S3        29.87F
LITCHFIELD     FAIR      79  63  57 CALM      29.86F
BUFFALO        FAIR      80  56  44 CALM      29.86F
MAPLE LAKE     FAIR      78  62  57 CALM      29.87F
HUTCHINSON     CLOUDY    76  63  63 CALM      29.87F
$$
MNZ037-044-045-052-053-222200-
   East Central Minnesota

CITY           SKY/WX    TMP DP  RH WIND       PRES   REMARKS
PRINCETON      FAIR      81  63  54 NW3       29.86F
MORA           FAIR      77  57  50 CALM      29.87F
CAMBRIDGE      FAIR      81  61  50 S3        29.85F
RUSH CITY      PTSUNNY   78  59  52 CALM      29.86S
MOOSE LAKE     FAIR      77  55  47 CALM      29.86S
HINCKLEY       FAIR      79  59  50 W3        29.86S
CLOQUET        FAIR      75  54  46 S6        29.87F
MCGREGOR       FAIR      79  57  47 SE7       29.87S
$$
MNZ071>073-080-081-089-090-097-098-222200-
   Southwest Minnesota

CITY           SKY/WX    TMP DP  RH WIND       PRES   REMARKS
MONTEVIDEO     CLOUDY    81  61  50 S6        29.85F
GRANITE FALLS  CLOUDY    79  58  49 CALM      29.86F
CANBY          CLOUDY    82  64  54 CALM      29.85F
REDWOOD FALLS  CLOUDY    77  60  55 SE6       29.84F
OLIVIA         CLOUDY    77  61  57 SE3       29.85F
PIPESTONE      PTSUNNY   75  63  64 SE3       29.87F
WINDOM         CLOUDY    75  70  83 S3        29.86F
WORTHINGTON    CLOUDY    72  63  73 CALM      29.89
JACKSON        CLOUDY    73  59  60 CALM      29.88F
TRACY          CLOUDY    76  60  57 CALM      29.86F
$$
MNZ065>067-074>077-082>085-091>093-222200-
   South Central Minnesota

CITY           SKY/WX    TMP DP  RH WIND       PRES   REMARKS
NEW ULM        PTSUNNY   75  63  64 SE5       29.85F
ST JAMES       CLOUDY    75  63  64 CALM      29.87F
GLENCOE        FAIR      79  59  49 CALM      29.85S
FARIBAULT      FAIR      79  59  50 NW3       29.85F
OWATONNA       FAIR      79  57  47 CALM      29.85F
WASECA         FAIR      77  55  47 CALM      29.86F
ALBERT LEA     FAIR      75  55  50 E3        29.84F
$$
MNZ078>079-086>088-094>096-222200-
   Southeast Minnesota

CITY           SKY/WX    TMP DP  RH WIND       PRES   REMARKS
ROCHESTER      FAIR      76  61  59 E7        29.85F
RED WING       FAIR      81  57  44 S7        29.82F
STANTON        FAIR      79  58  48 CALM      29.83F
DODGE CENTER   FAIR      79  57  47 CALM      29.86S
WINONA         FAIR      79  61  53 N3        29.82F
AUSTIN         FAIR      79  61  53 E5        29.84F
PRESTON        FAIR      71  59  66 NE8       29.86S
$$
ABBREVIATIONS USED IN REMARKS
   TC - TEMPERATURES IN CELSIUS
  WCI - WIND CHILL INDEX
   HX - HEAT INDEX
  VSB - VISIBILITY
$$




USA.gov is the U.S. government's official web portal to all federal, state and local government web resources and services.